Starlink 1718

operational
NORAD ID: 46674 Int'l Des: 2020-073 Owner: SPXS Country: US Constellation: starlink
LEOCIRCULARSTARLINK_TYPE

About Starlink 1718

Description loading...

Live Position

Loading 3D Globe...

Upcoming Passes

Altitude History

Altitude vs Time

uPlot chart will show altitude changes over time

Two-Line Element Set

1 46674U 20073E 25343.15295128 .00003373 00000-0 24526-3 0 9997
2 46674 53.0543 288.0510 0001260 91.2437 268.8696 15.06389159283485
Epoch: Dec 9, 2025 • Age: 10 hours

Current Status

Altitude 547.4 km
Velocity 7.59 km/s
Sub-Earth Point 21.38°N, 24.56°E
Launch Date Oct 18, 2020
Age 5.1 years
Type internet

Technical Details

Classification Payload
Mass 260.00 kg
Dry Mass 248.00 kg
Total Mass 260.00 kg
Length 0.20 m
Diameter 2.80 m
Span 9.00 m
Shape Box + pan
Manufacturer SPXS
Bus Type Starlink
Phase Status In Orbit
Owner/State SPXS/US

Large Constellations

Loading constellations...